Wind_Speed
12 10 8 8 9 9 8 6 4 5 5 7 9 8 11 14 15 15 8 2 1 3 5 2 1 1 3 5 9 17 14 11 8 4 4 7 15 22 26 27 27 26 26 26 26 24 22 22 21 22 22 22 22 22 22 23 23 21 21 23 23 23 23 22 20 17 16 15 14 14 15 16 16 15 15 15 15 14 13 13 12 13 12 12 13 12 11 11 11 11 11 11 11 11 11 10 9
11 10 9 9 10 8 4 5 5 5 7 8 8 10 12 13 16 14 7 5 4 4 3 3 2 1 3 6 6 16 14 13 11 9 8 15 21 20 22 24 25 25 25 26 25 23 22 22 21 22 22 22 22 22 22 22 22 21 22 23 24 24 22 22 19 17 15 14 13 13 15 15 15 15 15 15 14 13 13 12 12 12 12 11 11 11 11 10 11 11 11 11 10 10 10 10 9
12 11 11 9 9 8 4 5 6 6 8 8 8 11 13 14 15 8 5 4 7 8 2 4 2 1 0 4 6 13 10 11 12 11 9 16 16 16 21 22 24 24 24 24 22 22 22 21 21 21 22 23 23 23 22 22 22 22 22 24 24 23 22 21 18 16 14 14 13 13 14 14 15 15 15 16 15 14 14 13 12 11 11 11 11 10 10 10 10 10 11 10 9 9 10 9 9
13 13 12 9 6 6 5 5 7 8 8 8 8 10 15 16 10 2 2 4 9 5 2 3 3 4 8 5 8 11 10 9 10 10 8 13 15 19 22 21 23 23 23 21 19 21 21 21 21 20 22 23 23 23 23 23 23 22 23 25 24 23 22 20 18 16 14 14 13 13 14 14 16 16 16 16 15 15 14 14 12 12 11 11 11 10 10 11 9 9 10 9 9 9 10 9 10
13 13 13 11 5 3 5 5 6 8 8 9 8 4 6 7 3 7 8 6 4 2 3 2 4 7 12 10 6 6 7 8 9 10 10 14 20 23 22 21 21 22 22 21 19 20 21 21 21 21 22 23 24 23 24 24 24 24 24 25 24 22 21 19 18 16 15 14 14 14 14 15 15 16 16 15 15 14 14 13 12 12 12 12 11 11 11 11 10 9 9 9 9 9 10 10 11
12 13 12 11 6 5 5 6 8 8 11 12 10 9 7 8 8 9 8 2 2 3 5 4 4 7 10 8 8 8 6 6 7 8 11 17 23 22 20 21 20 22 22 21 19 20 22 21 21 21 22 23 24 25 25 25 25 25 26 25 23 22 20 19 17 16 15 15 15 15 15 14 14 15 15 14 14 13 12 12 12 11 12 12 11 10 11 11 10 9 9 9 8 8 10 11 10
13 10 7 8 5 5 6 7 9 8 12 13 13 13 5 9 6 4 5 4 3 4 6 5 4 8 8 7 8 9 11 8 8 8 13 20 24 20 19 20 20 23 21 21 18 19 23 22 22 22 22 24 24 25 25 26 26 26 26 25 23 21 20 18 17 16 16 15 15 15 15 14 13 15 14 14 13 12 11 12 12 11 11 11 11 10 10 10 9 8 9 8 6 6 10 10 9
15 9 3 6 5 5 7 8 10 9 11 13 15 10 4 7 4 2 2 3 4 4 8 6 5 8 7 9 7 7 13 12 12 13 16 20 21 19 19 20 21 22 21 20 18 20 23 22 23 23 23 24 24 25 26 26 27 27 27 24 22 20 19 18 17 17 16 15 15 15 14 14 14 15 13 13 12 11 12 13 12 10 11 12 11 10 10 9 9 9 8 7 4 7 9 8 7
14 9 4 6 6 6 8 9 10 11 13 13 14 4 9 6 1 4 7 3 2 2 7 10 8 8 10 13 9 6 11 13 16 16 16 18 19 19 19 20 21 20 20 20 20 22 24 23 23 24 24 24 24 25 26 27 27 28 26 23 21 19 18 17 17 17 17 16 15 15 14 15 15 14 13 12 11 11 12 12 10 10 11 11 11 10 9 9 10 9 8 5 5 8 7 5 5
9 7 6 6 6 8 9 9 9 11 14 14 12 2 7 4 3 6 8 7 4 4 6 9 7 10 15 12 8 6 10 13 15 15 16 17 17 18 19 20 21 21 21 21 21 23 24 24 24 24 25 25 25 26 27 28 28 27 25 23 20 18 17 17 17 17 18 18 17 16 16 16 16 14 12 12 12 12 11 10 9 10 11 11 10 9 9 9 9 8 6 5 6 8 6 4 3
6 6 6 6 7 8 8 9 10 10 13 15 9 4 2 1 2 6 8 8 7 7 7 7 6 13 15 10 6 7 13 14 13 14 16 17 17 17 19 20 20 22 22 22 22 23 23 23 24 24 26 26 25 27 28 28 27 26 24 22 19 17 17 17 18 19 20 18 17 17 17 16 15 15 13 12 12 11 11 9 9 9 9 10 9 9 8 8 8 7 6 6 6 8 6 3 2
6 6 6 7 7 7 9 9 10 11 13 14 5 3 2 3 3 6 8 8 8 7 9 7 11 14 11 9 6 8 14 13 12 15 16 17 17 17 18 19 19 21 22 22 22 22 21 20 22 24 25 25 26 26 26 26 25 23 21 19 17 17 17 18 18 20 20 18 16 17 16 16 15 14 13 12 11 10 9 9 9 8 8 8 8 8 8 8 7 7 6 5 6 7 4 3 3
7 8 7 8 7 8 10 10 11 11 9 7 2 3 5 3 4 8 9 10 9 9 7 8 18 14 9 9 8 9 12 11 13 15 16 17 17 17 18 19 20 20 21 21 21 23 22 20 21 22 24 24 24 25 24 24 22 20 18 17 17 18 18 18 18 19 19 18 17 18 17 15 14 14 13 11 10 8 7 7 7 7 7 7 8 8 8 8 8 7 6 5 6 5 4 5 4
7 8 7 7 8 10 10 10 11 9 7 1 4 7 9 3 6 6 8 9 9 7 5 17 19 13 9 8 7 8 10 13 14 15 15 16 17 18 17 19 20 20 21 20 21 23 22 21 20 20 22 23 22 23 23 22 21 19 18 18 17 17 17 18 18 17 17 18 20 21 19 16 15 14 13 11 9 8 7 7 7 6 5 5 5 7 7 7 8 8 7 7 7 4 5 6 5
8 6 7 8 7 10 9 10 10 9 6 2 5 8 6 5 5 6 7 8 8 7 12 15 10 7 9 7 7 9 13 16 15 16 16 16 17 17 17 19 19 19 20 20 21 22 22 21 20 20 21 22 21 22 22 21 20 19 19 20 19 17 17 17 17 16 16 17 19 20 18 15 14 13 12 11 10 9 7 7 6 6 5 4 3 4 5 5 6 7 6 6 6 4 5 6 5
8 6 7 7 8 10 8 11 10 10 4 8 3 3 2 5 5 6 7 9 10 6 10 8 6 6 9 7 10 16 19 18 17 17 17 17 17 17 18 18 18 18 19 20 21 20 21 21 21 21 22 22 23 22 20 21 22 21 20 21 20 18 18 16 16 17 17 18 18 19 17 15 14 14 13 10 9 8 7 7 5 5 4 4 3 3 3 3 3 4 4 5 4 4 4 4 4
7 7 7 7 9 10 9 11 8 8 4 8 1 1 3 5 7 4 5 9 8 9 12 11 13 8 5 7 17 24 23 19 17 19 18 17 17 16 17 17 17 16 18 21 21 19 20 21 22 23 23 23 24 22 21 22 22 20 20 21 19 18 18 17 16 17 17 16 16 17 16 15 14 14 13 9 8 8 7 6 5 4 3 3 2 2 2 2 2 2 3 3 4 4 4 4 3
8 6 8 8 9 10 11 13 6 5 5 4 5 4 5 6 5 3 3 7 3 12 14 14 16 13 11 16 24 25 23 20 18 19 18 16 16 15 15 16 16 15 17 22 23 20 19 20 22 22 24 24 22 22 22 23 21 20 21 21 18 18 18 19 17 16 16 15 15 15 16 15 14 13 12 10 8 7 8 6 5 4 3 2 2 2 2 1 1 2 2 2 2 3 4 5 3
8 7 8 8 10 12 13 13 5 3 4 5 5 1 5 4 3 4 4 9 7 8 11 13 13 13 14 17 20 20 21 20 18 19 18 16 16 15 15 15 16 16 18 20 21 20 19 20 21 21 22 24 22 22 23 22 21 21 22 19 17 17 16 18 17 16 15 14 15 15 15 14 13 11 11 10 8 8 8 6 5 4 2 2 1 1 0 0 1 1 2 2 1 2 4 5 4
9 8 8 9 13 15 16 13 5 6 8 6 2 2 5 1 3 4 5 7 4 5 10 12 9 11 11 12 14 17 19 18 18 18 17 17 17 16 15 16 16 17 18 18 18 20 18 16 18 20 21 24 25 24 23 22 23 22 21 19 18 17 15 16 16 16 14 13 15 16 14 14 11 11 11 9 9 8 7 6 5 4 3 2 2 1 2 2 3 4 4 4 3 3 3 3 6
8 9 9 11 14 15 16 10 5 4 3 5 3 2 6 2 2 3 5 3 1 5 11 12 10 12 12 12 13 14 15 16 16 16 16 16 16 15 15 16 16 16 16 16 16 17 16 13 16 22 24 25 25 24 23 23 23 21 20 19 18 17 15 15 16 15 13 14 16 15 13 13 11 12 13 10 9 8 7 7 6 5 4 3 2 2 2 3 3 4 6 6 4 4 6 7 7
8 11 14 16 17 14 13 7 5 6 1 5 5 4 6 2 2 5 6 7 3 6 11 12 13 14 14 13 12 13 14 14 15 15 15 14 14 14 14 15 16 16 14 14 16 15 15 15 17 22 25 23 22 22 22 23 23 20 18 17 16 16 13 13 15 15 14 16 16 14 14 13 12 14 14 11 10 9 8 6 6 5 4 3 3 3 2 4 4 5 6 7 7 7 9 9 7
9 11 14 17 19 16 14 8 2 3 3 5 8 11 6 3 6 7 6 7 5 8 11 14 13 12 14 14 12 13 13 14 13 14 15 13 13 14 14 16 17 16 14 13 14 15 14 15 16 20 22 19 19 22 22 21 20 17 16 15 14 14 12 12 14 15 16 17 16 14 15 14 13 13 13 12 10 10 9 8 8 7 6 5 4 5 4 4 5 6 7 8 9 9 9 9 9
13 12 13 16 18 16 14 10 1 2 6 9 10 12 5 4 8 3 7 4 12 13 15 16 13 13 13 14 13 12 12 13 12 15 16 14 13 14 14 15 16 16 16 14 14 16 15 15 17 18 18 17 19 23 22 20 17 16 16 14 13 13 13 14 15 16 16 16 14 14 15 14 13 13 12 11 11 10 10 9 8 7 6 6 6 6 5 5 6 6 7 8 7 7 9 7 9
14 14 14 14 15 15 13 11 6 3 7 8 10 11 3 7 10 5 9 6 19 17 17 17 15 16 14 13 14 12 11 11 12 13 13 13 13 14 15 14 15 15 16 16 16 18 17 17 19 17 17 19 21 23 21 19 18 16 16 15 14 13 15 16 16 15 14 12 11 12 14 14 13 13 12 10 10 10 10 10 9 8 7 8 8 8 6 6 7 6 5 5 5 6 7 5 6
12 15 15 15 15 13 10 10 11 8 6 7 9 11 7 9 12 7 8 5 16 16 19 18 15 15 13 13 12 11 11 11 10 11 11 13 14 14 15 15 15 15 16 17 18 18 18 18 18 16 20 22 22 23 22 19 18 17 17 17 14 13 14 14 15 14 14 12 10 10 11 12 11 11 11 10 9 10 11 11 8 8 7 7 7 7 7 5 5 4 2 2 3 5 4 6 6
12 16 15 17 17 14 10 10 12 10 9 10 9 11 10 11 12 5 8 8 12 12 17 19 14 13 11 11 11 10 11 12 11 12 11 13 14 15 15 15 16 16 17 17 17 18 21 21 18 18 21 23 22 21 21 19 18 17 17 16 13 13 12 14 16 15 14 12 10 8 8 9 9 10 11 9 9 10 11 9 6 6 5 5 5 5 6 5 4 2 2 2 2 3 3 5 6
15 15 11 14 17 16 15 11 11 11 10 12 11 12 12 12 12 8 12 11 12 10 15 19 13 12 10 9 10 9 9 12 14 12 11 11 14 16 15 15 16 17 17 16 16 18 23 22 20 21 22 22 20 19 20 18 16 16 16 15 13 13 13 14 15 13 12 9 9 10 9 10 11 11 11 8 7 9 8 6 5 5 4 4 5 5 5 6 4 1 3 4 2 2 2 3 5
16 13 9 12 14 15 17 13 12 12 10 12 12 12 11 12 14 12 15 13 13 12 13 18 14 11 10 9 8 8 8 11 13 11 13 14 15 17 16 16 15 15 17 16 16 21 24 23 21 20 20 20 16 14 15 13 13 15 16 14 13 14 13 13 13 12 13 12 13 14 13 12 12 12 12 11 10 9 5 4 4 5 5 5 6 7 6 5 4 3 3 4 3 2 2 3 4
13 13 10 11 10 12 17 14 13 13 10 10 10 8 9 12 16 14 16 15 13 13 12 13 13 11 10 9 7 8 8 9 11 13 15 16 16 16 16 16 16 15 16 16 21 27 25 22 21 19 17 17 14 11 11 11 11 11 12 12 12 14 13 11 14 16 16 16 15 14 13 12 11 11 11 12 12 8 5 5 5 6 7 7 7 7 6 4 3 3 3 4 4 3 3 3 4
10 11 10 9 8 9 14 15 15 15 11 12 11 7 8 12 15 17 16 11 11 11 11 10 11 12 10 10 10 9 9 10 12 15 16 17 16 15 16 17 15 11 14 21 26 27 24 22 21 19 18 18 17 14 12 13 12 7 8 10 9 12 13 11 15 16 14 13 13 12 11 10 9 10 11 10 10 8 7 7 6 6 7 7 6 5 5 4 3 2 2 2 3 4 5 4 4
8 9 9 8 9 10 14 17 19 17 13 15 14 8 8 12 15 18 17 13 14 13 10 11 11 13 11 9 9 8 9 10 13 17 18 17 15 14 14 11 14 18 20 25 26 24 23 21 20 22 21 21 20 16 13 15 14 8 7 7 6 10 13 12 12 11 10 11 12 11 11 10 9 8 9 9 9 8 7 7 6 7 7 6 6 4 4 3 3 3 3 1 2 4 3 4 5
8 8 8 10 11 10 12 15 19 20 15 16 16 9 7 11 13 14 19 19 17 15 11 12 12 13 13 9 8 9 8 9 13 17 17 17 16 12 10 18 22 25 24 23 23 22 20 19 21 23 22 20 20 17 14 13 14 11 8 6 7 10 12 11 11 10 9 10 12 11 10 11 10 8 7 10 11 8 6 7 7 6 6 6 6 6 4 3 3 3 2 2 1 1 1 3 5
7 8 8 11 14 11 11 13 16 21 17 15 16 11 11 13 12 14 16 23 17 14 13 13 12 9 12 10 10 10 9 10 12 14 18 17 10 12 27 29 25 25 24 23 22 19 18 20 22 22 20 19 18 17 15 12 10 9 8 7 11 11 10 10 11 11 11 11 11 11 10 10 10 8 8 9 11 10 8 7 7 6 6 6 6 6 5 3 3 2 1 1 1 1 1 3 5
9 9 9 10 14 13 13 14 13 20 18 15 14 14 15 16 13 11 5 18 16 14 13 12 11 9 13 11 10 10 10 11 12 14 17 11 18 30 33 28 25 24 25 26 24 19 19 20 21 21 20 19 17 15 15 12 9 10 10 9 10 9 10 11 12 12 13 12 11 10 9 9 9 8 8 9 10 9 8 7 7 7 6 6 6 6 4 4 4 2 2 1 1 1 1 2 3
11 8 9 11 11 12 15 14 12 20 17 14 14 14 14 16 15 6 7 9 10 12 11 9 11 10 12 11 9 9 10 12 13 11 8 18 29 30 27 26 25 25 26 28 25 21 20 18 18 20 20 18 15 14 13 12 11 10 10 8 8 11 11 11 12 12 13 12 11 11 9 9 9 8 8 9 9 9 8 7 6 6 5 5 5 4 4 5 4 3 2 2 1 0 1 2 2
13 13 13 13 12 11 14 15 12 18 13 13 14 13 14 13 14 12 12 12 11 10 9 7 10 11 11 12 10 10 10 8 5 11 22 27 26 25 27 28 25 24 27 29 26 21 19 17 15 17 18 15 14 13 12 12 11 8 7 8 10 12 11 11 11 12 13 12 13 12 10 10 10 9 9 10 10 9 9 7 6 5 4 3 3 3 3 3 3 3 1 1 1 1 0 1 2
13 12 14 10 11 11 13 15 12 15 9 10 13 13 13 13 13 13 13 15 13 11 9 8 11 13 11 11 11 11 8 4 13 18 19 22 23 24 27 26 24 25 26 29 25 20 19 17 15 16 16 13 12 13 12 11 10 7 7 9 10 10 11 12 12 11 12 12 13 12 11 11 11 10 10 11 10 9 9 8 6 5 4 4 3 2 2 2 1 0 1 1 0 1 0 1 0
10 9 11 9 7 10 12 13 9 10 5 7 11 11 11 13 14 11 11 13 12 10 10 10 11 12 10 11 11 9 6 11 14 9 8 15 20 23 26 23 21 23 23 24 22 20 19 17 16 17 17 15 13 14 14 12 9 6 7 9 9 10 12 13 13 12 12 12 12 12 11 11 10 10 11 11 11 10 9 8 7 6 5 4 3 3 2 2 2 1 1 2 2 1 1 1 1
8 8 8 7 7 10 7 5 6 9 4 5 7 8 8 11 10 8 14 11 11 11 12 12 11 10 10 10 6 4 11 14 11 7 6 12 19 21 22 21 18 21 22 20 20 21 19 17 19 19 18 17 17 17 15 13 9 8 10 10 9 12 15 14 13 12 12 12 11 11 10 9 8 10 11 11 11 10 9 8 7 7 6 5 5 4 3 3 2 3 3 3 3 2 2 2 2
9 10 10 9 10 12 7 6 7 7 7 6 6 7 8 10 9 11 13 7 8 10 11 12 11 10 11 4 7 12 14 12 8 7 7 11 16 17 20 21 18 20 21 19 19 20 18 18 19 20 20 19 20 19 17 14 12 12 14 12 12 14 13 11 12 12 11 11 11 10 10 9 8 9 11 11 10 9 9 9 8 8 7 6 7 7 5 5 5 6 7 6 5 4 3 3 2
8 11 13 15 15 15 10 7 7 4 5 6 7 8 7 8 11 13 8 7 8 10 9 13 11 11 11 7 15 14 10 7 7 8 9 12 14 16 19 21 21 21 22 20 19 21 21 20 19 21 22 21 20 18 17 16 14 15 15 13 12 11 9 10 11 11 12 12 11 10 10 9 8 8 11 11 10 9 9 9 8 7 7 8 9 8 6 7 9 9 8 8 9 7 5 4 2
8 9 13 17 19 18 14 6 5 5 5 5 8 8 6 6 13 14 9 10 12 11 10 12 11 11 9 10 14 12 7 3 3 5 9 13 15 14 12 14 19 21 23 24 23 25 26 24 22 21 20 19 19 17 17 16 14 15 14 11 10 9 9 10 10 11 13 13 11 11 11 9 8 8 9 9 9 9 8 7 7 6 6 9 11 9 8 9 10 10 9 10 11 11 10 8 6
8 10 13 17 18 16 14 11 7 6 5 5 8 9 7 7 10 12 11 13 13 12 10 10 10 7 8 14 15 11 4 3 1 5 10 13 15 16 11 11 16 18 22 25 26 27 29 27 22 20 19 17 16 16 16 13 13 13 11 9 8 8 10 12 11 13 13 12 12 11 11 10 9 9 9 9 9 9 9 8 8 7 7 10 11 11 10 10 10 11 10 11 11 12 13 12 11
10 13 13 11 14 14 12 9 7 5 6 6 8 9 7 6 6 9 13 14 13 13 12 11 10 7 16 16 14 8 6 4 4 6 11 14 16 18 16 14 16 18 21 22 23 25 29 29 25 22 20 18 16 16 15 12 11 11 9 7 8 9 12 12 12 13 13 12 12 11 11 11 11 10 10 10 10 10 10 10 9 10 11 12 11 11 11 11 11 11 11 11 12 13 13 13 13
11 13 12 9 10 12 10 9 6 4 5 7 8 7 6 7 6 8 11 12 11 12 13 11 9 12 18 13 10 9 8 5 6 6 11 15 19 20 18 16 17 20 21 19 21 24 27 29 28 26 25 22 20 19 17 14 13 14 10 6 8 13 13 12 13 14 13 13 12 12 12 12 11 11 11 11 11 11 11 10 10 10 11 12 11 11 12 12 12 13 13 13 13 13 13 12 11
12 11 9 10 10 8 9 8 5 3 5 8 10 9 6 7 6 7 7 9 9 7 8 11 10 13 18 14 12 10 8 6 6 8 11 17 21 21 19 18 19 20 20 20 21 24 26 25 24 26 27 25 23 21 19 17 16 18 14 7 9 14 13 13 15 14 14 13 13 12 12 12 11 11 12 11 11 11 11 11 11 10 11 11 11 11 11 12 12 12 13 13 13 14 13 12 12
10 7 6 8 7 6 7 6 5 5 5 8 12 13 10 7 5 3 2 1 6 5 7 7 10 15 16 12 10 10 9 9 9 9 10 16 20 21 20 19 19 18 18 18 20 25 27 25 22 24 25 24 24 22 20 19 17 18 15 9 12 14 13 14 15 15 15 14 13 14 13 12 12 11 11 11 11 11 11 11 10 10 11 10 10 11 11 12 12 13 13 14 14 14 14 13 13
9 7 7 7 5 5 6 5 6 6 6 9 12 11 9 5 1 5 8 6 2 8 9 7 9 13 14 12 10 9 9 9 10 10 11 14 14 16 19 19 18 17 18 17 20 26 28 26 25 25 25 25 24 23 22 21 19 18 15 13 14 14 13 15 15 15 16 14 14 14 14 13 12 12 11 10 10 10 9 10 10 10 10 10 10 10 10 11 12 12 13 13 14 14 14 14 14
9 7 7 6 5 5 6 6 6 6 7 10 9 6 3 2 4 8 8 6 7 9 8 5 7 9 11 13 11 9 9 9 9 9 10 12 13 15 18 20 19 18 19 18 20 25 27 26 27 25 24 24 25 25 23 21 20 17 16 16 15 14 14 15 15 16 15 14 15 15 14 13 13 12 11 10 9 9 10 10 10 10 10 10 10 10 11 12 12 12 12 13 14 14 14 15 15
10 8 8 7 5 4 4 5 5 4 5 6 7 4 2 3 2 5 9 8 9 12 12 9 7 8 10 12 11 10 9 7 6 5 5 5 8 14 19 19 19 21 21 20 20 22 22 23 26 26 23 22 25 26 24 22 20 16 16 18 16 15 15 15 15 15 14 14 15 15 14 14 13 13 12 11 10 10 10 10 10 11 11 10 10 10 11 11 11 12 12 13 14 13 14 15 14
7 8 9 7 4 2 2 3 2 1 3 4 3 2 2 4 2 4 9 9 9 12 14 13 11 11 10 10 9 7 6 6 6 4 4 5 2 6 18 20 18 21 23 22 23 22 21 23 25 25 22 23 26 27 25 24 20 16 18 20 17 16 16 15 15 14 14 15 15 14 14 14 14 14 13 12 11 11 11 11 10 10 10 10 10 10 10 11 11 12 12 13 13 13 13 14 14
2 6 8 7 7 6 2 2 1 1 3 3 2 1 2 5 4 4 8 9 10 12 13 13 11 10 9 8 7 4 3 3 4 3 5 8 2 6 11 20 18 19 21 22 24 24 23 25 24 22 23 26 27 27 27 25 19 18 21 21 19 17 17 16 16 15 15 15 14 14 14 14 14 14 14 13 12 12 11 10 10 10 10 10 10 10 10 10 11 11 12 13 12 12 13 13 13
3 4 4 4 5 6 3 2 1 2 5 5 5 5 4 5 4 7 10 9 11 10 9 10 9 9 8 6 6 5 3 1 3 6 6 8 5 9 8 14 16 17 18 19 20 21 21 22 22 22 26 28 26 27 28 24 19 19 21 21 19 17 16 18 18 17 17 17 16 15 15 15 14 14 14 13 13 12 11 10 10 10 10 10 9 9 9 9 10 11 11 11 11 11 12 13 12
8 4 3 4 3 4 4 3 2 3 5 5 6 9 7 4 3 9 14 11 12 11 8 7 8 9 7 5 6 7 6 3 3 5 7 6 10 14 11 12 13 13 14 15 16 16 16 17 20 21 23 24 23 24 26 21 17 19 19 18 19 15 14 18 19 18 18 19 17 15 15 15 14 14 13 13 13 12 12 11 10 9 8 8 8 8 8 8 9 9 9 9 10 10 11 11 11
10 5 3 4 3 3 3 2 2 5 5 4 7 8 3 3 3 7 14 15 14 13 9 7 8 7 5 5 5 5 7 6 2 4 8 11 13 15 15 15 12 11 10 12 14 14 14 15 17 18 17 19 19 21 24 19 16 20 20 16 16 15 14 16 18 18 19 19 17 16 16 15 15 14 13 13 12 12 12 11 10 9 8 7 7 7 6 6 7 7 7 8 8 9 9 9 9
7 6 7 6 4 3 3 2 3 5 5 4 5 4 3 7 6 3 12 16 16 15 13 11 9 8 6 5 5 5 6 8 8 7 9 11 12 14 17 17 15 14 12 12 13 14 15 16 17 17 16 18 19 22 26 22 18 22 23 18 16 16 14 15 16 16 18 17 16 17 16 16 15 14 13 13 12 11 11 11 11 10 8 7 6 6 5 5 5 5 6 6 6 6 6 7 8
8 7 7 7 5 4 4 4 5 5 5 4 3 1 2 3 4 5 11 13 13 14 14 13 13 13 12 10 10 9 9 10 9 8 8 9 11 14 18 18 17 15 14 14 14 14 15 16 17 17 16 16 19 23 25 24 22 23 22 19 18 16 15 16 16 16 16 16 16 17 17 15 15 13 13 12 11 11 11 10 10 10 9 8 6 6 5 4 4 5 5 4 4 4 5 6 5
Wind_Direction
216 223 226 232 236 250 241 215 238 215 224 251 244 247 242 241 249 253 239 179 167 300 300 248 15 348 344 354 86 75 43 32 26 22 87 130 127 110 106 114 120 124 132 144 151 151 155 158 163 167 168 168 167 166 163 160 158 156 153 153 153 152 150 148 146 143 140 141 141 138 140 142 138 132 128 126 123 121 120 120 120 118 115 114 114 113 112 109 109 105 102 100 102 103 100 100 101
215 223 228 238 236 242 240 198 244 233 212 241 241 245 251 243 240 243 223 191 131 71 4 46 2 35 3 307 75 77 57 53 66 77 104 123 117 116 117 119 121 123 132 144 147 149 155 159 164 167 169 169 168 167 164 161 159 158 157 155 155 153 151 150 148 145 142 142 143 139 140 142 139 137 134 129 126 123 122 122 121 119 115 114 114 116 118 115 115 111 106 105 106 106 104 104 101
223 234 228 223 230 235 250 213 233 252 227 233 238 234 243 250 246 241 237 231 97 94 108 77 15 1 60 269 56 66 69 63 83 95 114 124 118 124 124 120 122 124 131 138 141 148 154 159 164 166 169 169 167 167 164 162 161 162 158 156 157 154 152 151 150 147 143 143 145 141 139 139 138 139 138 134 131 130 126 123 123 121 120 120 121 122 123 121 121 115 112 111 109 110 109 109 108
233 249 239 215 216 220 235 231 225 250 246 242 243 221 223 237 243 194 95 44 73 97 194 112 103 62 50 48 68 73 80 70 83 98 118 123 121 126 124 121 125 127 131 134 139 150 156 158 161 162 165 166 165 166 164 163 165 163 159 158 158 155 153 153 153 149 146 146 148 142 140 138 138 140 141 140 140 141 137 135 134 132 132 128 127 130 129 127 125 122 119 115 114 116 113 110 111
238 253 248 230 229 224 229 237 231 240 246 252 258 266 246 224 125 82 77 54 86 157 249 168 142 95 66 41 46 67 75 77 72 87 109 116 121 125 126 127 130 131 133 136 140 152 158 157 158 159 160 163 164 165 164 165 167 163 160 160 158 155 155 156 155 151 149 149 148 144 142 140 140 143 146 147 149 149 147 145 143 143 140 133 134 140 138 134 131 129 126 121 122 125 117 108 106
238 251 242 237 262 294 262 238 236 235 242 252 265 303 2 60 66 73 85 70 222 197 248 229 177 117 89 61 58 52 38 87 93 94 113 118 124 128 130 131 134 134 136 139 141 155 160 157 157 157 158 161 162 163 165 166 167 164 161 161 158 158 158 159 157 153 151 150 149 148 147 142 141 147 151 152 153 151 148 147 144 145 146 142 144 145 141 138 137 134 130 129 133 134 121 111 107
228 240 220 225 255 275 257 245 242 238 241 244 257 275 360 59 56 77 122 179 214 197 222 241 161 111 98 98 78 45 39 85 119 116 122 124 127 132 134 134 135 135 138 140 140 156 160 158 158 157 159 160 162 163 166 167 166 163 162 162 161 160 161 161 159 156 152 151 154 153 150 144 144 151 155 154 152 149 145 146 145 143 144 146 146 140 135 136 137 136 140 142 142 134 124 117 113
227 242 212 216 233 230 234 250 246 249 245 240 249 255 65 64 53 3 276 194 186 192 196 211 162 127 94 90 87 50 53 78 110 117 127 129 130 130 135 136 135 137 140 138 142 156 160 160 159 159 158 159 162 164 165 165 164 163 164 164 162 163 163 164 161 156 152 153 155 150 146 143 147 153 155 153 150 152 148 148 148 146 142 139 138 134 134 139 143 146 154 157 152 141 129 119 118
226 242 236 230 236 235 234 244 242 250 254 252 253 215 97 102 172 282 300 293 178 245 206 192 186 151 104 86 89 79 71 87 110 122 131 131 130 129 135 137 136 137 134 135 146 156 159 161 161 159 158 159 162 164 165 163 163 165 166 166 165 165 166 165 161 157 153 152 148 141 142 144 148 150 152 149 147 150 147 146 146 144 141 136 135 137 141 144 152 156 157 163 160 154 146 131 127
221 227 235 242 235 246 240 240 241 246 252 250 245 189 81 98 212 243 267 281 247 269 227 178 180 137 114 101 96 97 97 107 120 130 134 132 131 130 133 134 136 134 131 138 148 154 157 161 162 159 159 159 162 163 163 163 164 166 168 168 168 169 169 165 161 158 152 147 142 141 146 148 146 144 143 140 138 142 140 138 137 139 141 140 138 141 145 146 152 154 152 160 154 155 162 151 133
222 218 228 247 237 247 245 245 241 235 248 247 223 139 84 129 219 243 238 262 258 250 233 186 144 113 109 101 96 116 119 122 133 139 139 135 132 131 131 132 135 135 137 140 144 151 154 158 159 158 159 160 162 162 162 164 166 168 170 172 172 173 169 166 163 157 151 146 145 146 149 151 146 139 134 134 134 135 135 132 132 139 146 150 146 144 147 148 153 157 165 168 154 151 162 162 144
228 223 213 241 244 245 248 254 249 236 236 233 209 110 156 178 210 256 240 240 249 247 242 199 132 117 115 109 115 132 126 133 142 143 142 135 131 131 132 131 134 136 138 139 142 151 150 151 157 159 160 159 160 161 164 166 168 170 171 173 174 172 170 167 162 156 154 151 150 151 154 155 150 141 135 137 136 134 136 131 129 134 144 151 151 152 154 160 166 173 185 179 162 158 167 184 170
235 238 220 235 245 252 255 256 260 257 242 215 152 99 110 126 228 250 242 227 229 247 248 146 126 119 114 112 128 136 132 144 144 145 143 133 132 133 134 133 136 137 137 139 143 150 148 147 156 161 161 159 161 163 167 168 169 172 173 176 175 172 169 164 162 160 156 154 157 160 160 157 154 148 141 141 142 142 141 131 125 125 134 144 153 159 165 176 181 184 196 188 176 176 192 194 181
235 245 246 249 249 254 259 260 265 268 262 207 108 124 121 169 247 264 255 236 219 219 83 100 118 113 109 120 137 147 146 152 149 149 141 132 136 136 136 137 139 140 139 141 145 151 151 151 155 160 161 159 163 169 171 172 173 175 175 174 170 168 166 164 166 158 151 157 165 164 160 158 156 151 146 148 152 155 152 144 137 133 133 139 152 160 168 178 182 188 199 195 192 197 196 193 189
235 248 255 259 261 256 254 260 268 270 270 75 111 128 130 225 239 272 261 258 234 170 92 97 118 112 134 155 152 159 154 153 156 151 140 136 140 139 138 139 141 143 142 144 147 151 151 153 154 155 156 155 164 170 170 172 173 172 173 172 169 168 168 165 159 143 149 166 166 162 159 153 149 150 155 156 161 166 165 159 150 142 133 134 148 157 168 180 182 193 200 197 204 203 187 188 191
235 252 255 257 263 261 256 254 256 265 292 69 69 148 180 229 182 244 236 238 243 133 90 97 84 91 148 161 144 150 150 151 156 149 141 140 143 142 142 141 141 143 142 145 148 151 152 152 151 150 151 156 164 164 162 168 171 172 173 175 173 171 169 158 146 145 159 167 162 162 156 143 146 156 160 158 164 171 171 170 158 143 129 123 131 144 168 187 183 189 189 188 198 199 191 188 195
233 242 254 258 253 255 254 252 246 252 229 105 63 190 238 231 145 240 264 247 247 80 65 70 65 64 117 124 132 142 144 148 156 150 142 144 147 145 145 141 143 143 141 147 149 150 154 152 150 148 149 161 166 158 161 170 173 175 175 179 176 173 168 152 148 158 165 163 163 164 147 140 158 164 157 157 168 174 176 175 162 145 124 106 106 115 127 153 161 171 175 175 186 192 191 182 177
234 228 240 249 249 252 247 255 265 268 261 100 51 29 265 259 141 172 256 255 224 89 76 73 67 56 66 100 125 138 141 147 161 159 150 152 153 152 150 146 149 146 145 154 156 154 156 155 152 149 153 163 165 161 167 171 175 178 179 180 174 172 163 150 155 166 168 164 161 151 139 149 170 166 153 159 170 177 181 176 172 158 126 111 90 93 91 104 153 172 188 191 194 195 192 183 158
232 232 235 239 246 252 248 262 297 358 350 51 48 319 247 276 82 121 219 235 206 134 101 85 79 78 82 104 124 137 142 152 170 169 160 160 160 159 157 153 156 154 152 157 163 165 159 156 153 152 160 163 161 165 168 171 178 180 179 177 170 170 159 153 164 172 169 166 157 142 145 163 168 160 151 161 173 176 183 180 179 172 142 131 104 110 133 283 281 288 270 252 235 218 204 196 200
223 234 241 237 243 254 259 275 332 32 17 11 32 196 225 242 121 164 219 227 196 149 116 106 106 109 111 117 131 143 149 164 178 177 169 167 166 164 163 159 159 161 160 154 165 174 164 157 157 159 165 164 163 165 167 171 178 178 176 175 172 170 159 157 170 178 174 167 158 145 154 165 156 160 160 165 178 178 183 182 183 184 173 160 145 199 247 258 280 284 276 277 256 222 227 252 248
213 227 241 245 245 248 258 283 309 283 324 310 356 110 241 244 189 208 184 207 41 104 124 134 139 135 142 137 143 156 162 172 181 184 178 172 167 166 165 158 159 164 158 148 158 172 167 158 157 162 166 165 164 163 167 171 172 174 174 174 173 170 163 159 167 178 179 172 163 147 151 159 154 166 168 167 176 175 180 182 183 184 181 177 169 191 261 272 276 273 276 284 268 244 266 274 271
220 229 236 248 254 253 266 312 313 277 250 251 280 280 269 87 271 267 174 191 216 144 134 140 144 145 151 146 157 170 171 177 181 185 182 175 165 163 160 152 153 151 148 151 156 162 163 162 160 167 169 166 160 161 170 172 170 170 171 173 172 170 166 160 163 174 180 177 168 151 150 160 165 168 164 169 173 169 176 182 185 181 180 193 193 187 233 277 282 291 291 292 295 293 284 272 272
231 239 236 244 254 263 281 308 327 317 317 258 258 265 299 38 255 260 211 195 160 152 126 124 138 145 149 147 167 179 177 181 182 186 185 178 168 162 156 152 152 149 151 153 151 148 147 159 166 167 170 163 155 163 172 169 167 167 169 170 167 167 165 161 164 172 180 181 175 159 153 161 168 166 166 178 177 170 178 183 189 190 187 194 211 206 218 264 279 304 298 284 284 279 278 285 297
231 242 241 244 250 255 268 283 348 95 255 260 262 260 285 289 255 233 238 190 114 123 117 123 139 148 156 155 169 180 183 187 189 193 182 175 172 159 152 154 154 152 149 144 145 143 139 153 159 156 160 157 156 167 171 163 161 166 169 166 160 164 163 161 164 172 183 184 177 160 151 155 163 169 172 182 182 182 192 193 195 195 195 201 208 216 229 250 254 275 271 256 250 263 276 281 301
231 241 246 251 253 250 249 253 252 211 234 248 259 266 261 254 259 244 242 156 115 129 133 140 149 153 162 158 169 178 185 195 195 195 177 167 169 155 151 152 155 154 144 143 143 141 147 157 153 151 151 151 160 169 167 162 161 162 164 162 160 161 159 161 165 173 182 184 175 161 157 158 165 172 169 176 184 188 197 197 195 190 202 214 209 224 241 246 256 269 279 266 240 265 285 280 281
231 239 244 248 253 259 255 243 245 240 241 236 236 253 247 247 260 260 257 166 131 148 148 148 152 154 161 158 169 176 184 201 197 190 177 167 165 160 160 155 157 156 144 147 145 143 152 150 143 149 154 152 159 165 166 167 165 160 160 161 159 153 151 159 164 171 181 179 164 167 174 165 164 168 163 175 179 176 187 193 197 194 206 220 215 239 253 252 268 268 291 336 267 255 276 294 265
242 242 241 243 251 259 256 243 246 244 239 237 231 240 235 240 250 235 250 216 154 161 151 145 151 150 156 159 164 175 185 203 200 186 182 175 167 168 172 168 165 154 146 157 158 150 147 144 141 144 152 156 156 162 167 165 160 159 159 157 153 149 147 156 162 169 182 174 156 175 189 169 168 164 164 181 176 173 180 182 196 206 222 230 225 260 269 259 265 238 254 324 306 257 282 295 245
251 253 252 246 251 252 246 232 234 239 231 227 230 243 232 231 239 213 240 222 152 174 157 141 153 148 152 160 162 179 187 199 200 189 188 183 175 178 179 178 173 154 153 165 159 143 138 145 149 141 145 153 152 153 158 157 154 160 161 154 150 148 146 151 158 168 176 169 167 180 180 180 189 177 168 173 181 194 186 165 184 206 229 229 226 251 261 256 260 275 288 318 333 265 292 302 251
254 257 256 251 251 249 244 230 226 233 225 216 218 242 234 226 234 213 235 228 162 188 175 148 157 149 153 163 163 183 189 197 196 194 196 189 186 186 179 179 178 158 157 163 143 129 130 140 148 146 144 145 143 140 145 145 149 162 162 153 145 142 143 147 156 173 178 176 177 173 169 178 185 175 161 152 170 198 191 171 204 213 218 213 219 236 246 255 268 280 280 304 328 306 294 300 289
254 251 249 255 255 247 239 226 226 231 226 214 201 229 235 226 232 217 231 230 175 189 197 166 158 151 155 160 175 194 190 195 197 201 199 192 194 191 180 178 175 159 148 140 126 123 124 129 140 141 134 136 136 137 144 133 136 159 155 145 143 139 142 151 165 179 178 174 169 162 164 170 170 167 159 153 161 171 163 176 203 213 216 214 219 234 243 250 264 275 286 302 319 331 324 306 304
245 242 240 245 250 250 237 220 218 226 223 208 202 226 232 225 224 216 227 218 171 193 201 182 171 160 156 161 180 196 191 200 204 203 200 196 197 190 185 177 161 133 114 112 117 128 130 124 130 130 126 137 142 145 148 135 133 148 136 140 152 147 151 167 175 175 165 158 153 148 154 158 161 164 161 158 158 157 164 173 183 198 206 205 209 226 239 242 248 255 281 325 350 348 350 334 316
233 236 238 233 238 249 243 224 209 215 215 201 210 229 230 239 228 210 215 200 183 202 198 194 192 157 155 175 181 189 197 206 206 205 205 200 194 193 186 152 108 91 95 109 118 134 134 119 125 132 130 137 142 145 145 134 132 139 136 142 168 164 161 169 169 160 146 141 139 137 140 144 147 151 157 158 156 162 172 170 170 186 194 188 189 200 204 212 239 248 237 221 30 359 358 344 330
221 225 237 235 234 238 247 234 204 204 212 201 208 226 231 238 239 226 214 199 190 201 199 204 202 157 156 182 184 189 198 204 210 209 206 200 198 192 125 91 96 101 102 112 124 137 133 119 127 132 131 134 137 139 137 127 124 135 144 156 186 181 166 157 149 144 135 127 126 126 130 135 138 141 149 149 154 164 167 166 165 175 186 179 178 181 176 193 230 243 227 193 131 33 19 5 352
218 218 232 240 241 233 236 241 203 192 208 205 196 215 247 235 255 281 221 188 182 197 204 203 203 165 152 177 189 189 198 204 214 211 204 202 183 90 76 86 106 110 108 118 127 138 137 131 132 131 131 133 130 130 132 128 125 129 136 180 197 175 150 138 131 131 124 115 119 123 123 126 133 137 138 143 158 165 163 164 163 169 180 179 182 174 162 189 223 208 125 168 196 198 87 26 4
218 212 219 231 245 240 235 244 201 181 201 209 192 201 242 245 254 300 190 166 175 193 206 199 190 162 148 178 198 190 200 201 210 214 204 171 93 78 80 94 107 103 108 124 129 136 142 139 134 130 127 124 121 126 130 133 139 130 131 182 187 133 114 117 112 110 110 111 114 116 117 119 126 131 132 143 151 151 156 167 165 166 174 177 183 175 174 207 231 204 125 185 283 294 135 62 12
244 255 242 222 234 240 235 246 198 173 190 206 207 204 221 243 243 230 130 157 199 199 209 196 176 174 164 182 201 196 209 204 203 201 142 90 83 88 97 103 105 104 112 127 134 135 143 144 132 123 119 120 127 131 132 133 129 123 132 165 147 109 104 108 104 103 104 108 108 103 103 108 119 131 135 138 138 139 149 161 158 157 167 173 173 181 207 225 232 207 166 200 210 57 193 113 36
275 299 276 228 223 240 232 240 200 173 190 203 210 217 212 227 238 215 169 181 221 215 214 201 182 199 193 188 198 205 218 209 148 85 82 86 88 98 109 110 111 113 120 135 139 132 139 147 133 119 115 125 138 134 132 129 115 116 138 139 118 108 107 102 96 97 99 101 103 102 100 100 105 115 120 119 122 129 136 140 138 140 149 146 151 173 194 199 204 203 185 221 192 157 166 96 60
278 294 288 244 216 235 231 235 206 169 189 200 195 222 226 221 229 223 187 181 206 211 212 219 204 208 205 193 200 206 206 116 65 61 80 98 100 107 121 128 125 121 129 140 136 130 140 144 136 129 127 134 142 133 130 125 120 142 150 127 121 122 119 110 98 97 99 97 100 104 106 106 102 103 107 107 104 106 114 119 114 109 104 93 98 114 116 109 98 295 344 22 37 207 186 117 19
275 273 280 275 231 231 226 231 208 158 184 206 189 215 235 235 229 224 214 192 186 194 209 231 221 209 210 203 205 203 150 87 80 84 105 109 107 115 132 141 129 120 132 140 134 134 144 146 142 144 144 147 149 140 138 138 137 154 141 122 129 124 110 108 106 107 108 105 104 104 107 113 115 116 114 107 101 99 105 109 107 104 96 87 82 68 65 59 43 30 5 22 40 69 104 146 229
265 261 257 274 261 241 219 187 146 127 163 228 223 230 237 242 233 233 240 208 167 190 211 229 224 202 213 222 217 144 95 87 98 124 132 118 115 123 139 146 132 124 135 146 145 144 147 150 151 154 154 153 154 150 148 147 136 127 124 118 118 111 102 104 110 111 110 108 106 105 108 112 114 116 110 104 102 101 104 105 103 103 98 96 99 86 72 66 56 72 66 30 45 68 78 126 200
247 251 252 262 264 254 230 163 147 143 169 200 238 253 244 234 225 234 239 185 160 201 213 228 219 197 213 206 76 80 90 99 127 153 150 127 119 128 145 148 140 135 137 143 153 154 152 150 153 159 159 154 153 153 152 149 135 124 121 114 109 110 112 118 119 117 117 113 110 112 112 108 109 107 102 103 105 102 102 103 103 101 99 100 101 96 81 66 56 63 64 57 58 58 92 145 179
250 239 243 258 268 271 259 181 162 191 210 193 209 242 247 227 228 233 214 160 194 215 216 230 219 200 202 134 92 91 99 122 158 160 135 119 120 133 149 151 145 141 137 140 156 164 161 157 156 161 162 157 154 153 152 148 139 127 119 113 117 125 137 138 130 126 124 120 119 120 115 108 107 98 92 96 100 101 101 103 106 105 107 107 101 100 91 73 66 62 58 63 63 59 89 123 92
253 233 226 244 260 273 276 243 190 211 232 207 204 228 246 226 228 227 196 183 206 209 216 230 220 203 182 120 98 99 116 171 165 124 112 117 127 136 155 152 142 145 144 146 159 167 167 165 160 159 162 161 155 151 151 144 134 126 118 120 139 155 150 136 128 125 121 121 121 116 114 108 99 93 94 96 96 100 100 98 104 109 121 116 102 96 90 78 76 72 66 68 66 64 80 95 83
246 241 222 223 238 255 265 267 255 224 226 229 214 222 240 238 223 212 202 201 201 202 212 228 224 198 116 93 91 101 160 222 145 121 122 129 136 142 159 150 141 153 156 157 163 166 166 165 160 159 161 158 152 149 145 134 125 125 126 142 170 168 138 128 127 124 122 125 126 121 120 117 109 105 104 102 100 100 99 98 95 82 97 112 103 93 89 84 82 80 76 75 72 69 74 83 86
239 252 253 229 221 234 242 254 258 230 230 240 228 225 236 249 220 201 213 211 200 197 197 217 224 125 86 84 94 123 196 203 187 156 128 134 142 146 159 155 150 163 166 164 163 161 163 163 162 162 158 153 152 150 144 134 127 131 146 176 179 147 134 138 136 132 133 135 133 127 121 116 113 107 103 101 98 97 98 100 94 76 78 93 98 96 96 95 92 87 85 84 81 78 77 80 85
238 248 271 268 234 227 229 241 242 222 238 242 235 233 247 257 213 195 219 208 199 204 188 198 207 124 104 112 132 169 195 180 182 158 126 136 144 149 158 152 153 169 173 164 156 158 162 162 163 161 156 155 159 159 155 150 145 148 165 201 163 140 147 155 145 140 143 138 131 125 121 120 115 107 102 101 97 96 98 97 95 87 83 89 96 101 100 96 94 91 88 89 86 84 83 83 85
232 234 244 252 243 228 222 235 238 221 232 239 240 226 232 263 215 190 224 199 189 202 174 184 186 130 121 141 163 169 172 170 163 143 132 134 140 151 155 149 155 170 174 163 154 159 162 161 161 156 155 159 162 164 162 159 160 158 162 189 167 156 166 161 150 149 147 141 137 134 133 129 119 109 104 101 98 96 98 98 97 94 91 92 93 96 97 92 92 91 87 87 86 84 85 83 81
217 224 231 234 228 223 228 225 223 235 228 233 241 219 204 242 232 172 7 187 176 135 116 162 157 124 123 148 159 146 152 167 156 147 140 130 139 153 153 154 160 163 167 163 158 163 164 164 160 155 158 163 163 165 163 161 165 160 157 173 175 169 171 163 158 157 151 148 146 139 137 130 121 117 111 107 105 99 98 99 98 99 96 92 89 87 90 91 89 88 85 85 83 81 83 81 76
212 209 224 235 216 211 231 222 215 237 233 227 240 230 212 229 182 93 57 34 128 133 132 166 156 133 134 147 147 140 152 162 153 152 145 131 141 155 154 158 160 160 165 163 161 165 168 167 164 163 165 165 166 166 163 163 166 162 157 166 174 174 173 170 165 160 156 154 150 142 139 135 127 124 118 114 114 110 108 103 99 101 97 96 96 88 89 95 93 89 86 84 83 81 83 82 76
224 222 219 224 218 213 224 227 223 231 231 224 226 230 213 174 114 111 104 69 60 88 107 151 164 147 140 141 143 142 148 154 151 150 144 137 147 156 155 157 161 168 169 163 163 168 169 169 167 168 169 168 168 167 165 167 168 165 160 162 172 176 175 175 169 162 159 155 152 147 143 140 135 130 127 126 124 120 114 108 104 103 99 99 98 89 89 95 94 91 88 85 84 84 85 83 79
213 228 237 230 221 229 228 230 241 244 247 240 221 214 158 157 165 110 112 94 73 74 76 82 96 100 110 123 129 133 141 138 119 110 106 113 150 159 152 153 163 171 170 165 167 170 169 169 167 166 171 173 169 168 170 170 171 172 164 162 171 178 178 176 169 164 160 155 153 149 146 143 139 137 137 134 130 126 118 112 111 107 103 101 97 92 90 91 92 91 89 86 84 83 82 80 79
209 214 232 237 208 204 239 234 250 309 307 289 233 244 78 138 178 93 101 95 80 76 77 82 82 82 90 100 106 115 124 115 104 110 104 72 336 187 154 153 165 170 172 171 169 173 174 173 169 162 168 178 173 172 174 171 173 176 165 163 171 177 178 174 168 165 159 155 154 151 147 146 145 144 143 141 138 132 125 118 114 110 108 106 103 101 96 93 94 92 89 88 85 85 83 80 78
234 224 226 230 205 196 207 218 203 132 257 252 172 105 81 137 159 143 136 116 84 66 67 77 81 86 88 85 84 66 47 106 127 113 96 98 341 272 168 158 166 169 175 176 171 174 175 173 169 159 164 175 172 173 174 172 174 173 164 166 173 176 177 175 169 164 158 157 156 152 149 148 150 150 148 148 146 138 131 127 122 117 113 108 104 102 98 95 94 92 90 88 86 85 83 81 78
207 235 257 280 229 216 211 181 171 257 251 233 179 178 185 189 192 164 154 128 92 78 78 87 89 94 93 89 96 84 43 358 103 94 83 107 171 245 200 159 160 164 174 177 171 172 173 170 167 167 171 168 163 167 170 169 172 166 159 165 172 175 175 172 168 163 160 157 152 151 152 151 153 154 153 154 152 144 138 134 129 122 113 109 107 104 101 99 97 96 91 87 87 87 84 83 80
224 230 301 321 264 234 225 192 179 224 246 248 210 202 200 211 201 155 152 136 107 101 104 106 109 114 117 124 130 120 111 91 84 121 127 146 198 214 186 149 146 154 165 172 167 163 164 161 159 169 175 167 166 172 166 161 166 161 156 161 170 174 169 165 166 165 161 156 152 151 152 154 155 157 160 161 157 152 146 140 135 130 122 118 117 111 105 103 100 97 94 91 90 87 83 82 79
232 225 231 233 227 245 247 237 247 225 228 243 227 214 181 31 326 183 157 140 130 128 128 126 124 124 129 136 135 123 116 117 166 188 161 171 196 188 155 135 128 122 129 153 159 149 142 144 148 156 160 158 169 180 172 165 166 163 160 161 169 174 169 164 165 165 161 158 156 154 152 156 160 163 166 166 163 159 153 147 143 137 132 128 123 119 115 112 105 100 100 99 94 91 87 83 83
230 224 225 219 217 243 231 209 251 253 245 248 244 231 80 35 341 205 143 133 138 142 142 144 143 141 146 148 146 150 154 161 180 186 163 161 166 153 139 132 127 122 121 135 148 143 136 139 144 147 150 151 157 168 173 175 176 174 170 169 174 178 176 170 165 162 160 158 161 161 156 158 164 167 169 168 167 166 160 155 152 147 145 144 141 139 135 127 120 121 116 109 107 107 102 93 93
242 230 228 228 221 223 227 221 230 254 264 259 251 226 78 34 8 75 117 131 137 138 142 144 144 152 161 161 164 172 169 159 155 153 148 145 142 139 136 131 130 134 134 133 139 140 137 138 143 148 153 155 155 162 172 179 182 180 177 175 179 181 178 169 163 163 163 160 163 165 161 162 166 168 172 172 171 170 168 164 159 155 154 155 155 154 156 153 147 142 131 123 124 112 106 111 109
Height
760 761 761 762 761 762 760 759 772 767 765 773 758 752 739 718 712 709 705 700 705 701 692 695 696 699 705 713 720 727 732 734 739 744 756 748 736 742 741 743 746 748 751 754 756 758 760 763 764 765 767 768 770 771 773 775 777 779 780 782 783 785 786 788 789 791 792 794 796 796 798 799 800 801 801 802 803 804 805 806 807 807 808 809 809 810 811 812 813 813 813 814 815 815 816 816 816
760 761 760 762 760 763 760 756 775 769 766 774 754 744 729 710 711 708 704 703 706 701 693 695 697 700 704 705 710 723 734 732 730 734 738 734 738 743 743 747 747 749 752 754 758 759 762 763 765 766 767 769 771 772 774 776 778 780 781 782 784 786 787 789 791 792 793 795 797 798 799 800 801 802 803 804 804 805 806 807 808 808 809 810 811 812 812 813 814 814 814 815 815 816 816 816 817
760 761 760 762 759 760 758 757 773 771 768 769 750 731 718 714 710 700 698 696 697 697 697 700 703 705 708 714 718 731 741 732 728 732 733 735 739 743 746 748 747 751 752 756 759 760 763 764 766 767 768 770 772 774 775 777 779 781 782 784 785 787 789 790 792 793 795 796 798 799 801 801 802 803 804 805 805 806 807 808 809 809 810 811 812 812 813 814 814 815 815 816 816 816 817 817 817
759 760 758 759 759 761 762 763 767 767 766 757 740 718 707 710 702 696 696 695 694 698 702 703 710 707 714 729 726 733 742 735 730 731 735 736 739 744 747 748 750 752 754 758 760 761 763 765 767 768 769 771 773 775 776 778 780 782 783 785 786 788 790 791 793 794 796 797 799 800 801 802 803 804 805 805 806 806 807 808 809 810 811 811 812 813 814 815 816 815 816 816 816 817 817 817 817
759 759 757 756 760 759 758 762 758 761 760 745 732 711 698 699 697 700 700 700 699 703 704 704 715 711 717 731 728 737 742 736 733 731 735 738 740 745 747 750 753 753 756 759 761 763 764 765 767 768 770 772 774 776 777 779 781 783 784 786 788 789 791 792 794 795 796 798 799 801 802 803 804 805 805 806 807 807 808 809 810 810 811 812 812 814 815 816 816 816 816 817 817 818 818 818 818
759 758 755 754 755 751 756 762 756 755 744 731 729 711 698 699 702 705 705 706 701 702 703 704 712 715 728 732 729 738 737 736 739 736 737 739 743 746 748 751 753 755 758 759 762 763 764 767 768 770 771 773 775 777 779 780 782 784 785 787 788 790 792 793 794 796 797 798 800 801 802 804 805 806 806 807 807 808 809 809 810 811 811 812 813 814 815 816 817 817 817 817 818 818 819 819 819
758 758 755 757 756 752 764 764 754 749 731 719 723 710 701 704 705 708 711 711 707 704 704 704 705 719 738 733 734 738 732 735 737 739 740 742 745 747 750 751 754 756 758 761 763 764 766 767 768 771 772 774 776 778 780 781 783 785 787 788 790 791 792 794 795 796 798 799 800 802 803 804 805 806 807 807 808 809 809 810 811 811 812 812 813 814 815 817 818 818 818 818 819 819 819 819 820
757 756 752 759 762 757 763 760 748 741 725 711 707 703 702 704 708 711 713 712 713 709 706 706 703 726 741 732 743 743 733 737 737 742 743 744 747 748 751 752 754 756 759 762 763 765 767 768 770 772 773 776 777 779 781 782 785 786 788 789 791 792 793 795 796 797 798 800 801 803 804 805 806 806 807 808 809 810 810 811 812 812 813 813 814 815 816 817 818 819 819 819 820 820 820 820 820
754 756 752 757 762 758 757 753 744 733 721 709 700 699 700 704 709 713 715 711 711 709 707 706 704 729 743 738 748 743 737 741 741 745 744 747 748 750 752 753 756 757 760 762 764 766 767 770 771 772 774 777 779 781 782 784 786 787 789 790 792 793 794 795 796 798 799 801 803 804 805 806 806 807 808 809 810 811 811 812 812 813 813 814 815 816 817 817 818 819 820 820 821 821 821 821 821
752 753 754 756 759 760 756 747 739 728 717 707 699 697 700 705 709 712 716 714 709 709 706 700 705 726 739 744 750 743 742 744 743 747 747 749 749 751 754 754 757 758 761 762 764 766 768 771 771 774 775 778 780 782 784 785 787 788 789 791 792 794 795 796 797 799 800 803 804 806 806 807 807 808 809 810 811 812 812 813 813 814 814 815 816 817 817 818 819 819 820 821 821 821 821 821 821
755 750 750 758 760 761 755 744 733 723 712 702 695 695 700 704 710 713 714 714 708 709 705 699 714 729 737 746 750 745 743 745 746 748 748 750 751 753 754 756 758 758 761 762 765 767 768 771 773 775 776 779 781 783 785 786 788 789 790 791 793 794 796 797 799 801 802 804 805 807 807 808 809 809 810 811 812 813 813 813 814 815 815 816 817 818 818 818 819 820 821 821 821 821 822 822 822
757 751 749 762 760 754 746 738 728 716 707 701 699 696 698 703 712 716 714 716 710 710 705 701 717 727 740 750 749 745 744 747 748 749 751 752 753 754 755 756 758 759 762 763 765 767 769 772 774 776 778 780 782 785 786 787 789 789 791 792 793 795 796 798 800 802 803 805 807 808 808 809 810 810 812 812 813 813 814 814 815 816 816 817 818 818 819 819 820 820 821 821 821 822 822 822 822
754 749 749 757 750 744 739 733 723 714 708 699 700 699 699 707 714 714 712 713 711 714 706 699 709 721 739 748 746 746 746 748 748 751 752 753 754 755 756 757 759 761 763 764 766 767 769 772 774 777 779 782 784 786 787 787 789 790 791 792 794 795 796 799 801 803 804 806 807 806 807 809 811 812 813 814 814 815 815 815 815 816 816 817 818 818 819 819 820 820 821 821 822 822 822 822 822
748 744 746 751 742 739 735 732 722 718 712 697 700 700 702 710 710 707 709 713 712 712 705 699 706 722 740 747 748 748 746 748 749 752 752 754 755 755 756 757 760 761 763 765 766 768 769 772 774 777 780 783 785 786 787 788 790 791 792 793 794 796 797 799 801 803 805 806 805 805 808 810 812 813 814 814 815 816 816 816 816 816 816 817 818 818 819 819 820 821 821 822 822 822 823 823 823
743 740 743 748 744 739 732 729 722 721 712 698 702 701 704 707 703 707 709 714 710 698 701 705 707 723 738 743 748 745 743 747 748 751 752 754 755 755 758 758 760 762 764 765 766 768 770 772 774 777 781 783 784 785 787 789 790 791 792 793 794 796 797 799 802 804 805 805 805 807 809 811 813 814 814 815 816 817 817 817 817 817 817 817 818 818 819 819 820 821 822 822 822 823 823 823 823
737 738 745 749 748 743 733 725 721 723 712 703 704 698 708 706 699 710 704 705 705 694 702 712 711 720 731 733 737 737 740 746 747 751 752 754 755 756 758 759 761 762 764 765 767 769 770 773 775 778 781 783 784 785 788 789 790 791 792 793 794 796 798 800 803 805 805 805 807 809 809 812 814 813 814 815 816 818 818 818 818 817 818 818 818 819 820 820 821 822 822 822 823 823 824 824 824
733 740 751 752 748 743 732 722 718 718 709 705 705 699 712 709 701 705 697 697 705 705 711 717 717 720 725 726 729 734 740 745 748 751 751 754 755 756 758 759 761 762 765 766 767 770 771 774 776 779 781 783 784 786 788 789 791 792 793 794 795 797 798 801 805 806 806 807 809 809 811 813 814 812 813 816 817 818 818 819 818 818 818 818 819 820 821 822 822 822 823 823 823 824 824 824 824
736 745 754 753 746 737 723 715 707 705 703 704 706 706 713 712 706 703 703 707 708 715 721 721 725 726 727 728 731 737 741 745 748 750 751 753 754 755 757 758 761 763 764 766 768 770 771 774 776 779 781 783 785 787 788 790 792 793 793 795 796 798 800 802 804 806 807 808 810 811 813 813 813 813 813 815 817 819 819 819 818 818 818 818 819 821 822 823 823 824 824 824 824 824 824 824 824
739 744 749 748 739 725 711 704 698 702 707 705 709 711 712 711 707 706 714 718 712 721 728 729 734 735 734 734 738 741 742 746 748 749 750 752 753 754 755 758 760 762 764 766 768 769 771 774 776 779 781 782 785 787 788 790 792 792 794 795 796 800 802 804 804 805 807 809 811 813 814 812 813 814 814 816 818 819 819 819 818 818 818 818 819 821 823 824 824 825 824 824 824 825 825 825 824
736 740 746 740 728 719 706 699 698 704 709 710 712 711 711 709 706 709 717 720 719 726 732 735 741 741 741 740 741 744 745 747 748 748 749 751 752 753 754 756 758 760 763 765 767 769 771 774 776 779 781 782 784 786 789 790 791 792 794 795 797 800 803 804 804 805 807 809 811 813 814 812 814 815 816 818 819 819 819 819 819 819 819 819 820 822 823 824 825 825 825 825 825 825 825 825 825
733 736 742 731 719 718 707 699 700 703 708 713 714 714 714 707 704 708 714 725 729 728 729 733 739 741 742 743 743 746 747 747 748 748 748 749 751 752 754 755 758 760 762 765 768 770 772 774 775 778 780 781 783 786 789 790 791 793 794 795 798 800 803 804 805 805 807 809 811 813 814 813 815 816 817 819 820 820 819 819 819 820 820 820 821 822 824 825 825 826 826 826 826 826 826 826 827
731 731 731 724 717 717 706 699 703 704 708 715 717 718 713 706 709 709 714 727 729 723 724 728 733 737 739 742 745 747 748 748 747 747 747 748 750 752 754 755 758 760 763 765 768 770 772 773 774 777 780 782 784 787 789 791 792 793 795 796 798 800 802 804 805 806 806 808 810 812 814 814 815 816 818 819 820 820 820 820 820 821 822 822 822 823 824 825 826 827 828 829 829 828 828 828 828
733 730 723 720 717 716 707 702 706 708 713 720 720 716 708 712 717 709 711 718 716 714 719 726 731 734 736 741 746 747 748 748 747 746 746 747 749 751 753 755 758 760 763 765 768 770 772 774 775 777 780 783 785 787 789 790 793 795 797 798 799 801 802 804 805 805 805 806 808 811 813 814 814 816 818 820 820 821 820 821 821 821 822 823 823 824 825 826 827 829 831 831 831 830 829 828 827
730 731 722 718 714 713 710 706 708 713 720 720 715 712 712 721 719 710 711 710 710 715 720 727 732 733 736 740 745 747 748 747 746 746 746 747 749 751 753 755 757 760 762 765 768 770 772 776 778 779 782 785 786 787 788 790 793 796 797 799 800 801 803 805 805 806 806 806 808 811 812 814 816 818 820 821 821 821 821 820 821 821 821 823 823 824 824 825 826 827 828 828 829 829 829 827 827
726 727 722 717 713 709 707 707 710 714 718 716 715 716 717 719 714 712 711 706 710 718 721 726 731 734 737 740 744 746 747 747 745 745 745 747 749 751 753 754 756 759 762 765 767 770 773 776 778 781 783 785 786 787 788 791 793 796 798 800 801 802 804 805 806 807 806 807 810 811 812 815 817 818 820 821 821 821 820 820 820 820 821 822 823 823 824 824 825 825 825 825 826 827 828 827 827
722 722 720 717 714 708 706 709 711 714 715 715 719 722 719 715 713 715 710 704 709 715 721 725 729 735 736 739 742 744 746 746 745 745 745 747 749 751 753 754 756 758 762 765 768 771 774 776 779 781 783 786 786 787 788 791 793 796 798 800 802 803 805 807 808 807 806 808 811 812 812 814 816 818 819 821 821 820 819 819 820 820 821 822 823 824 824 824 825 825 825 825 825 826 827 827 828
715 715 715 714 714 709 708 712 712 714 714 714 721 724 720 713 717 722 712 702 706 713 721 725 729 734 735 737 740 741 745 745 744 745 746 746 748 751 751 753 755 758 762 765 768 772 774 777 780 782 784 787 787 788 790 792 794 796 799 800 803 805 806 807 808 807 807 810 812 812 811 812 815 817 820 820 820 819 818 818 819 819 820 822 823 823 824 824 824 825 826 826 826 826 827 827 827
713 713 715 715 714 711 709 712 714 715 715 713 717 722 719 715 719 721 711 701 705 713 720 726 729 732 734 737 738 740 741 743 744 744 745 745 746 749 750 752 754 757 761 765 768 772 774 777 780 783 786 788 790 793 794 795 796 797 800 802 804 805 806 806 807 807 808 810 813 814 814 814 816 818 820 820 819 817 816 817 818 819 821 822 823 823 824 824 824 825 825 826 826 826 827 827 827
713 712 721 721 716 716 711 710 713 714 715 709 713 726 725 721 719 714 707 701 704 712 718 723 728 730 733 735 737 739 739 740 742 743 743 744 745 747 749 752 754 757 760 765 768 772 776 779 782 785 788 791 793 795 797 798 799 800 801 803 805 805 806 806 806 807 809 811 814 817 817 816 817 818 819 820 819 817 816 817 818 819 821 822 823 824 824 825 824 825 825 825 826 826 827 827 827
717 716 723 725 724 723 711 708 711 712 713 704 714 739 735 722 715 707 703 700 703 713 715 717 724 729 732 735 736 738 738 739 740 742 743 743 744 746 748 752 754 757 761 765 769 773 778 781 784 787 790 793 794 797 798 799 801 802 803 804 806 806 806 806 808 811 812 813 814 816 816 816 817 817 817 818 818 818 818 819 819 820 821 822 823 824 824 825 825 825 825 825 826 826 826 826 826
721 723 723 726 734 728 709 705 711 714 711 701 716 740 734 718 710 703 699 698 705 714 714 715 722 726 731 734 737 739 737 738 739 740 741 742 744 745 748 752 755 760 766 768 770 774 778 781 785 788 791 793 795 798 800 800 800 801 803 804 807 808 808 808 809 811 812 812 813 814 815 815 815 816 816 817 817 818 819 819 820 821 821 822 823 824 824 824 825 825 825 825 826 826 826 826 826
722 732 733 728 732 727 709 700 705 713 709 701 717 735 729 715 705 698 696 698 705 714 714 715 719 724 730 733 735 738 737 737 738 739 740 742 743 745 749 754 759 766 772 774 773 775 778 781 784 787 791 794 796 799 800 801 801 802 803 804 808 809 808 809 809 809 810 811 812 813 814 814 815 815 815 816 817 817 818 820 820 821 821 822 823 823 824 824 824 824 825 825 826 826 827 827 827
723 731 738 730 726 726 714 699 693 702 707 704 714 726 724 713 700 693 692 695 703 711 714 715 717 722 729 733 733 736 738 738 738 738 740 741 743 748 753 758 764 770 775 777 778 778 778 781 784 786 790 793 796 798 799 800 803 804 805 807 810 811 809 808 808 809 810 811 812 813 813 814 815 815 815 816 817 817 818 819 820 821 822 822 822 823 823 823 823 824 824 825 825 826 827 827 827
727 726 732 727 721 720 716 703 689 693 704 706 710 719 719 709 698 690 683 689 702 710 714 714 714 719 726 731 733 735 737 739 739 737 738 742 747 754 758 761 766 770 774 778 781 781 779 781 783 786 788 791 794 797 799 800 802 804 806 810 813 812 809 808 808 808 809 810 811 812 813 814 815 815 816 816 817 817 818 819 820 821 821 821 822 822 822 822 822 823 824 824 825 826 826 827 827
726 724 726 725 718 713 710 701 687 689 703 706 710 720 717 707 701 692 682 688 702 709 711 711 712 719 726 730 731 732 734 738 738 736 739 745 752 758 761 764 768 771 774 778 782 782 780 781 783 786 788 791 794 796 797 799 801 802 806 810 811 810 808 807 807 808 809 810 811 812 813 814 815 816 816 816 817 818 819 819 820 820 821 821 821 821 821 821 821 822 823 824 825 826 826 827 826
715 714 715 718 716 710 702 693 681 685 702 707 709 716 715 710 704 698 694 697 703 706 707 708 711 717 723 727 728 729 732 733 734 737 743 750 755 760 763 765 767 771 775 778 780 780 780 781 783 787 790 792 794 795 796 798 800 802 804 807 808 807 807 806 807 807 808 810 810 812 813 814 815 816 817 817 818 819 819 820 820 820 820 820 820 820 821 821 821 822 823 824 825 826 826 826 826
709 712 710 706 709 708 695 687 680 681 699 707 705 708 710 708 704 698 698 703 705 707 708 708 710 715 718 722 725 728 729 730 736 744 749 754 760 763 763 764 766 770 773 775 778 780 781 782 783 786 789 791 792 794 796 797 798 800 802 804 806 806 806 805 806 807 808 810 811 813 814 815 816 817 817 818 818 819 819 820 820 820 820 820 820 820 821 821 821 822 823 824 825 825 826 826 826
713 717 713 701 702 703 690 684 680 680 697 704 702 707 708 704 702 697 695 703 706 706 709 710 710 712 714 718 724 725 727 735 747 755 756 757 761 765 762 761 764 767 770 774 778 782 783 783 784 785 787 788 790 792 794 795 797 799 801 803 804 805 805 805 806 807 809 811 812 813 815 816 817 817 818 818 818 819 819 820 820 820 820 820 820 820 821 821 822 822 823 823 824 825 825 826 826
718 719 716 708 700 696 690 682 678 683 699 704 702 710 710 702 697 695 694 699 703 703 706 709 708 710 713 717 721 722 730 745 754 757 760 761 762 764 762 762 765 768 771 774 778 781 783 784 784 785 786 787 789 791 793 795 797 799 800 802 803 804 804 805 807 808 810 811 813 814 816 817 817 818 818 818 818 819 820 820 820 821 821 821 821 821 821 822 822 823 823 823 824 825 825 825 826
723 721 720 715 702 697 699 694 687 691 703 706 705 710 710 703 697 696 693 692 697 701 704 704 704 709 713 714 718 725 739 751 753 755 760 762 762 763 762 762 766 769 772 775 777 780 782 783 784 785 787 788 789 791 793 795 798 799 800 801 802 803 805 806 808 809 811 812 813 815 816 817 818 818 818 818 819 819 820 820 821 821 822 822 822 822 822 822 822 823 823 824 824 825 825 825 826
723 720 720 716 705 698 699 700 697 699 705 706 711 722 717 705 705 704 693 691 699 702 704 705 703 707 711 716 728 737 746 751 750 753 760 762 761 762 762 763 766 769 773 776 776 778 781 783 784 785 786 787 789 791 793 796 798 799 799 800 803 805 806 808 809 810 811 812 814 815 817 817 818 818 818 818 819 819 820 820 821 821 822 822 822 822 823 823 823 823 824 824 824 825 825 825 826
725 718 716 712 708 702 696 699 703 713 721 710 715 741 733 708 707 706 696 699 706 704 706 707 706 708 711 722 739 746 749 748 746 750 758 761 761 761 760 762 766 769 773 775 776 776 778 780 781 783 784 786 788 791 793 796 798 798 799 801 804 807 808 809 809 810 811 813 814 815 817 817 818 818 818 819 819 819 820 820 821 821 822 822 822 823 823 823 823 824 824 825 825 825 825 826 826
730 714 708 709 709 708 703 703 709 723 731 713 712 739 740 718 709 702 697 706 710 707 708 708 707 708 711 726 743 749 751 751 746 751 758 760 761 762 762 763 766 769 770 771 772 772 773 775 777 780 783 786 788 791 794 796 798 798 800 803 806 808 809 809 810 811 811 813 815 815 816 817 818 819 819 819 819 819 820 820 821 821 821 822 822 823 823 823 824 825 825 825 825 826 826 826 827
727 707 701 706 707 710 709 707 711 715 719 716 710 721 735 728 708 696 698 707 711 710 712 711 708 711 720 735 747 751 755 754 749 753 758 759 761 762 763 766 769 769 769 769 769 770 771 773 777 780 783 787 789 792 795 797 798 798 801 804 807 808 809 810 810 811 812 814 815 816 816 817 818 819 819 820 820 820 820 820 821 821 821 822 822 823 824 824 825 825 825 826 826 826 827 827 827
717 701 696 697 700 706 706 708 712 710 719 731 719 713 733 733 706 697 700 705 713 713 714 715 712 721 736 744 749 752 753 753 750 752 756 758 761 762 763 765 768 769 769 770 770 771 772 773 776 780 784 788 790 793 794 796 797 798 801 805 807 808 809 811 811 811 813 814 815 816 816 817 818 819 819 819 820 820 821 821 821 821 821 822 823 824 825 825 826 826 826 826 827 827 827 828 828
706 699 699 697 697 700 704 709 711 715 732 741 725 715 735 736 710 703 707 707 713 712 712 715 714 728 744 746 749 751 748 748 747 748 752 756 760 762 763 764 766 768 768 771 773 773 773 773 776 780 783 786 789 791 793 794 795 796 800 804 807 809 810 812 812 812 813 813 814 815 816 817 818 818 819 819 820 820 821 822 822 822 822 822 823 824 824 825 825 826 826 826 826 827 827 828 828
699 700 704 705 703 699 705 707 709 729 745 738 722 715 733 741 716 704 708 705 706 708 711 713 715 728 742 743 743 745 746 747 745 746 748 753 759 761 763 764 766 768 769 771 773 774 775 776 778 780 782 784 787 790 791 793 794 794 797 803 807 809 811 812 812 812 812 813 814 815 816 817 818 818 818 819 820 821 822 822 822 822 822 822 823 824 824 825 825 825 826 826 826 827 827 828 828
698 704 708 714 714 710 714 714 717 743 749 731 716 708 725 744 725 707 707 701 700 708 714 716 717 728 737 736 736 740 745 745 743 746 746 749 756 760 762 765 766 768 770 772 773 774 775 778 781 782 782 784 786 788 790 792 794 795 797 802 806 809 811 812 812 812 812 813 814 815 816 817 817 818 819 819 820 822 822 822 822 822 823 823 823 824 824 825 825 826 826 826 826 827 828 828 828
700 706 713 725 731 732 737 735 734 743 738 720 710 707 722 734 720 710 710 705 703 706 711 715 718 727 734 733 734 737 741 742 742 744 744 748 753 757 761 764 765 768 770 771 772 773 775 777 780 782 783 784 786 788 790 792 794 796 798 801 806 809 811 812 812 812 812 813 814 814 815 816 817 818 819 820 821 822 823 823 823 823 823 823 823 824 824 825 825 826 826 827 827 827 828 829 829
705 707 714 728 739 750 756 746 739 741 729 710 702 710 730 734 718 711 711 709 708 709 712 716 716 722 730 731 733 737 739 741 741 742 745 748 751 754 759 762 764 767 768 770 772 772 774 776 778 781 783 785 786 788 790 792 795 798 799 801 806 809 811 812 812 812 812 813 813 814 814 815 816 817 819 821 822 822 823 823 823 824 824 824 824 824 825 825 826 826 827 827 827 828 829 829 830
704 700 705 718 726 741 752 746 742 741 729 714 708 717 735 742 728 713 710 711 712 715 720 721 720 722 726 729 733 737 740 741 743 745 748 751 754 755 758 762 764 766 767 770 772 773 774 775 777 780 782 784 786 788 790 793 796 799 800 802 806 809 810 811 812 812 812 812 813 813 814 815 816 818 819 821 822 823 823 824 824 824 824 825 825 825 826 826 826 827 827 828 828 829 830 830 831
700 693 703 714 712 721 736 738 734 736 736 729 724 725 725 728 725 711 711 716 716 720 726 727 730 731 731 735 738 741 742 743 745 748 750 756 761 761 760 763 764 765 768 769 771 773 775 776 778 780 783 784 786 788 790 793 797 799 799 801 804 807 809 810 810 810 811 812 813 813 814 815 816 818 820 821 823 824 824 824 824 825 825 825 826 826 827 827 828 828 828 829 829 830 831 831 832
708 702 706 703 694 706 730 737 728 732 747 739 729 735 730 726 727 716 713 721 725 731 734 735 739 739 740 744 746 748 749 747 748 751 755 760 765 766 763 763 763 764 766 768 770 773 774 776 779 783 785 785 786 789 790 793 795 797 797 799 803 805 807 808 808 809 810 811 813 813 814 816 817 818 820 822 823 824 824 825 825 825 825 826 827 827 828 828 829 829 829 830 830 831 832 832 833
710 712 702 692 694 702 716 738 743 745 753 735 723 738 739 735 734 721 716 726 734 741 743 744 746 746 748 750 751 754 758 757 756 756 760 765 769 770 766 763 763 764 766 767 769 772 774 776 779 783 784 784 786 788 789 791 794 795 796 798 802 804 805 806 807 807 809 810 812 813 815 816 818 819 821 823 824 824 825 825 825 826 826 827 828 828 829 829 830 830 831 831 832 832 833 833 834
693 699 693 701 726 726 717 733 750 756 758 741 725 727 728 728 728 721 725 733 738 744 745 746 749 749 752 755 755 756 757 759 759 758 762 769 773 771 766 763 764 765 767 768 770 773 775 776 778 782 784 785 786 787 788 792 794 795 796 798 801 803 804 805 805 807 808 810 811 813 815 816 818 820 822 823 824 824 825 825 826 827 827 828 829 830 830 831 831 832 832 832 833 833 834 834 835
685 691 692 701 721 725 720 727 734 742 752 746 732 725 728 733 725 717 724 732 736 744 746 745 747 746 748 751 752 753 752 754 759 760 762 768 771 766 763 764 765 766 768 769 771 773 774 776 778 781 784 786 788 788 790 793 794 795 796 799 801 803 804 805 805 807 809 810 811 812 814 816 819 821 823 824 825 825 825 825 826 827 828 829 830 831 832 832 833 833 833 834 834 834 835 835 836
694 701 704 704 707 710 717 724 720 724 738 743 739 737 740 738 723 710 717 727 732 738 743 746 747 748 749 749 750 751 752 754 758 759 759 761 763 762 762 765 766 768 770 770 772 774 775 777 778 780 783 786 788 790 791 793 794 795 796 798 801 803 805 806 806 808 809 810 811 813 814 817 819 822 823 824 825 826 826 826 826 827 829 830 831 832 833 833 834 834 834 835 835 835 836 836 837
695 700 702 704 708 714 727 732 721 717 726 731 738 751 749 734 720 714 717 725 728 732 739 744 747 751 751 751 753 753 751 753 756 758 758 758 759 760 762 765 767 769 770 772 774 775 775 777 779 781 783 785 787 789 791 793 795 796 796 798 801 804 806 807 807 809 810 810 812 814 815 817 820 822 823 825 825 826 827 827 827 828 829 830 832 832 834 834 835 835 835 836 836 836 837 837 838